Tracking 17147 objects as of 5-July-2015
HD Live streaming from Space Station

SL-3 R/B

Track SL-3 R/B now!
10-day predictions
SL-3 R/B is classified as:


NORAD ID: 11849
Int'l Code: 1980-051B
Perigee: 383.5 km
Apogee: 388.4 km
Inclination: 97.7 °
Period: 92.1 minutes
Semi major axis: 6756 km
RCS: 5.692 m2 (large)
Launch date: June 18, 1980
Source: Commonwealth of Independent States (former USSR) (CIS)

Note: This is a ROCKET BODY
Your satellite tracking list
Your tracking list is empty





NASA's NSSDC Master Catalog

Two Line Element Set (TLE):
1 11849U 80051B   15185.84588495  .00026746  00000-0  29514-3 0  9997
2 11849 097.6838 102.3517 0003583 007.9330 352.1983 15.63060834926482

Source of the keplerian elements: AFSPC

N2YO: 219